| time (UTC) | temp C | wind direction | speed KPH | gust KPH | rain 1hr cm | rain 24hr cm | rain mn cm | humidity % | barometer mb |
| 20260510171509 | 29 | 80 | 4.8 | 17.7 | 0.00 | 1.12 | 0.00 | 80 | 1015.5 |
| 20260510170007 | 31 | 307 | 4.8 | 9.7 | 0.00 | 1.12 | 0.00 | 70 | 1015.4 |
| 20260510164615 | 31 | 167 | 6.4 | 11.3 | 0.00 | 1.12 | 0.00 | 70 | 1015.5 |
| 20260510163002 | 31 | 262 | 3.2 | 9.7 | 0.00 | 1.12 | 0.00 | 73 | 1015.9 |
| 20260510161601 | 30 | 269 | 4.8 | 9.7 | 0.00 | 1.12 | 0.00 | 76 | 1016.0 |
| 20260510160059 | 30 | 188 | 4.8 | 11.3 | 0.00 | 1.12 | 0.00 | 75 | 1016.0 |
| 20260510154555 | 30 | 255 | 3.2 | 12.9 | 0.00 | 1.12 | 0.00 | 78 | 1016.1 |
| 20260510153055 | 30 | 190 | 3.2 | 9.7 | 0.00 | 1.12 | 0.00 | 79 | 1016.3 |
| 20260510151554 | 29 | 167 | 4.8 | 11.3 | 0.00 | 1.12 | 0.00 | 80 | 1016.1 |
| 20260510150047 | 28 | 247 | 4.8 | 11.3 | 0.00 | 1.12 | 0.00 | 83 | 1016.1 |
| 20260510144549 | 28 | 218 | 4.8 | 11.3 | 0.00 | 1.12 | 0.00 | 83 | 1016.0 |
| 20260510143043 | 28 | 227 | 4.8 | 9.7 | 0.00 | 1.12 | 0.00 | 83 | 1016.1 |
| 20260510141538 | 28 | 259 | 6.4 | 11.3 | 0.00 | 1.12 | 0.00 | 86 | 1015.9 |
| 20260510140034 | 27 | 292 | 1.6 | 9.7 | 0.00 | 1.12 | 0.00 | 90 | 1015.7 |
| 20260510134529 | 26 | 204 | 3.2 | 9.7 | 0.00 | 1.12 | 0.00 | 96 | 1015.5 |
| 20260510133026 | 25 | 234 | 3.2 | 11.3 | 0.00 | 1.12 | 0.00 | 99 | 1015.4 |
| 20260510131523 | 24 | 189 | 3.2 | 8.0 | 0.00 | 1.12 | 0.00 | 99 | 1015.4 |
| 20260510130019 | 23 | 221 | 3.2 | 8.0 | 0.00 | 1.12 | 0.00 | 100 | 1015.3 |
| 20260510124516 | 23 | 263 | 3.2 | 6.4 | 0.00 | 1.12 | 0.00 | 100 | 1015.2 |
| 20260510123013 | 23 | 304 | 0.0 | 3.2 | 0.00 | 1.12 | 0.00 | 100 | 1015.0 |
| 20260510121510 | 23 | 168 | 1.6 | 3.2 | 0.00 | 1.12 | 0.00 | 100 | 1014.8 |
| 20260510120007 | 22 | 161 | 0.0 | 0.0 | 0.00 | 1.12 | 0.00 | 100 | 1014.7 |
| 20260510114504 | 22 | 161 | 0.0 | 0.0 | 0.00 | 1.12 | 0.00 | 99 | 1014.4 |
| 20260510113002 | 21 | 161 | 0.0 | 0.0 | 0.00 | 1.12 | 0.00 | 99 | 1014.4 |
| 20260510111559 | 21 | 161 | 0.0 | 0.0 | 0.00 | 1.12 | 0.00 | 99 | 1014.2 |
| 20260510110101 | 21 | 161 | 0.0 | 0.0 | 0.00 | 1.12 | 0.00 | 99 | 1014.0 |
| 20260510104609 | 21 | 161 | 0.0 | 0.0 | 0.00 | 1.12 | 0.00 | 99 | 1013.8 |
| 20260510103055 | 21 | 161 | 0.0 | 0.0 | 0.00 | 1.12 | 0.00 | 99 | 1013.5 |
| 20260510101555 | 21 | 161 | 0.0 | 0.0 | 0.00 | 1.12 | 0.00 | 99 | 1013.4 |
| 20260510100056 | 21 | 161 | 0.0 | 0.0 | 0.00 | 1.12 | 0.00 | 99 | 1013.2 |
| 20260510094551 | 21 | 161 | 0.0 | 0.0 | 0.00 | 1.12 | 0.00 | 99 | 1013.2 |
| 20260510093049 | 22 | 161 | 0.0 | 0.0 | 0.00 | 1.12 | 0.00 | 99 | 1013.1 |
| 20260510091548 | 22 | 161 | 0.0 | 1.6 | 0.00 | 1.12 | 0.00 | 99 | 1012.9 |
| 20260510090050 | 22 | 160 | 0.0 | 4.8 | 0.00 | 1.12 | 0.00 | 99 | 1012.7 |
| 20260510084554 | 22 | 156 | 1.6 | 4.8 | 0.00 | 1.12 | 0.00 | 99 | 1012.6 |
| 20260510083051 | 22 | 161 | 1.6 | 4.8 | 0.00 | 1.12 | 0.00 | 99 | 1012.4 |
| 20260510081547 | 22 | 157 | 1.6 | 4.8 | 0.00 | 1.12 | 0.00 | 99 | 1012.4 |
| 20260510080052 | 22 | 153 | 1.6 | 4.8 | 0.00 | 1.12 | 0.00 | 99 | 1012.3 |
| 20260510074601 | 22 | 140 | 1.6 | 4.8 | 0.00 | 1.12 | 0.00 | 99 | 1012.4 |
| 20260510073047 | 22 | 139 | 0.0 | 3.2 | 0.00 | 1.12 | 0.00 | 98 | 1012.6 |
| 20260510071554 | 22 | 136 | 0.0 | 3.2 | 0.00 | 1.12 | 0.00 | 99 | 1012.7 |
| 20260510070042 | 22 | 137 | 1.6 | 4.8 | 0.00 | 1.12 | 0.00 | 99 | 1012.7 |
| 20260510064554 | 22 | 201 | 0.0 | 3.2 | 0.00 | 1.12 | 0.00 | 99 | 1012.9 |
| 20260510063038 | 22 | 201 | 0.0 | 3.2 | 0.00 | 1.12 | 0.00 | 99 | 1013.3 |
| 20260510061538 | 22 | 202 | 0.0 | 4.8 | 0.00 | 1.12 | 0.00 | 99 | 1013.4 |
| 20260510060038 | 22 | 202 | 0.0 | 3.2 | 0.00 | 1.12 | 0.00 | 99 | 1013.5 |
| 20260510054533 | 22 | 202 | 0.0 | 0.0 | 0.00 | 1.12 | 0.00 | 98 | 1013.7 |
| 20260510053029 | 22 | 160 | 0.0 | 0.0 | 0.00 | 1.12 | 0.00 | 98 | 1013.9 |
| 20260510051538 | 22 | 160 | 0.0 | 0.0 | 0.00 | 1.12 | 0.00 | 98 | 1013.9 |
| 20260510050026 | 22 | 160 | 0.0 | 0.0 | 0.00 | 1.12 | 0.00 | 98 | 1014.3 |
| 20260510044529 | 22 | 160 | 0.0 | 0.0 | 0.00 | 1.12 | 0.00 | 98 | 1014.3 |
| 20260510043025 | 22 | 160 | 0.0 | 0.0 | 0.00 | 1.12 | 0.00 | 98 | 1014.4 |
| 20260510041522 | 22 | 160 | 0.0 | 0.0 | 0.00 | 1.12 | 0.00 | 97 | 1014.3 |
| 20260510040021 | 22 | 160 | 0.0 | 0.0 | 0.00 | 1.12 | 0.00 | 97 | 1014.3 |
| 20260510034519 | 22 | 160 | 0.0 | 0.0 | 0.00 | 1.12 | 1.12 | 97 | 1014.5 |
| 20260510033021 | 22 | 160 | 0.0 | 0.0 | 0.00 | 1.12 | 1.12 | 97 | 1014.3 |
| 20260510031518 | 22 | 160 | 0.0 | 0.0 | 0.00 | 1.12 | 1.12 | 97 | 1014.4 |
| 20260510030018 | 22 | 160 | 0.0 | 0.0 | 0.00 | 1.12 | 1.12 | 97 | 1014.3 |
| 20260510024519 | 22 | 161 | 0.0 | 0.0 | 0.00 | 1.12 | 1.12 | 97 | 1014.2 |
| 20260510023016 | 23 | 159 | 0.0 | 0.0 | 0.00 | 1.12 | 1.12 | 97 | 1014.0 |
| 20260510021515 | 23 | 159 | 0.0 | 0.0 | 0.00 | 1.12 | 1.12 | 97 | 1014.0 |
| 20260510020015 | 23 | 159 | 0.0 | 0.0 | 0.00 | 1.12 | 1.12 | 97 | 1013.6 |
| 20260510014521 | 23 | 75 | 0.0 | 0.0 | 0.00 | 1.12 | 1.12 | 97 | 1013.3 |
| 20260510013014 | 23 | 336 | 0.0 | 0.0 | 0.00 | 1.12 | 1.12 | 96 | 1013.4 |
| 20260510011518 | 23 | 337 | 0.0 | 0.0 | 0.00 | 1.12 | 1.12 | 96 | 1013.4 |
| 20260510010013 | 23 | 337 | 0.0 | 0.0 | 0.00 | 1.12 | 1.12 | 95 | 1013.3 |
| 20260510004513 | 23 | 337 | 0.0 | 0.0 | 0.00 | 1.12 | 1.12 | 95 | 1013.3 |
| 20260510003012 | 23 | 337 | 0.0 | 0.0 | 0.00 | 1.12 | 1.12 | 94 | 1013.0 |
| 20260510001511 | 23 | 337 | 0.0 | 0.0 | 0.00 | 1.12 | 1.12 | 94 | 1012.9 |
| 20260510000011 | 23 | 337 | 0.0 | 0.0 | 0.00 | 1.12 | 1.12 | 94 | 1012.6 |
| 20260509234509 | 23 | 337 | 0.0 | 0.0 | 0.00 | 1.12 | 1.12 | 93 | 1012.4 |
| 20260509233009 | 23 | 337 | 0.0 | 0.0 | 0.00 | 1.12 | 1.12 | 94 | 1012.4 |
| 20260509231509 | 23 | 337 | 0.0 | 0.0 | 0.00 | 1.12 | 1.12 | 94 | 1012.4 |
| 20260509230008 | 23 | 337 | 0.0 | 1.6 | 0.00 | 1.12 | 1.12 | 94 | 1012.2 |
| 20260509224506 | 23 | 336 | 0.0 | 3.2 | 0.00 | 1.40 | 1.12 | 94 | 1012.1 |
| 20260509223006 | 23 | 336 | 0.0 | 1.6 | 0.00 | 1.40 | 1.12 | 94 | 1012.1 |
| 20260509221516 | 23 | 336 | 0.0 | 1.6 | 0.00 | 1.40 | 1.12 | 94 | 1012.0 |
| 20260509220005 | 23 | 336 | 0.0 | 4.8 | 0.00 | 1.40 | 1.12 | 95 | 1012.0 |
| 20260509214504 | 23 | 337 | 0.0 | 1.6 | 0.00 | 2.34 | 1.12 | 95 | 1012.1 |
| 20260509213004 | 23 | 336 | 0.0 | 4.8 | 0.03 | 2.34 | 1.12 | 95 | 1012.0 |
| 20260509211504 | 23 | 344 | 0.0 | 4.8 | 0.03 | 2.34 | 1.12 | 96 | 1012.1 |
| 20260509210002 | 23 | 40 | 0.0 | 3.2 | 0.03 | 2.34 | 1.12 | 96 | 1012.0 |
| 20260509204501 | 23 | 54 | 0.0 | 3.2 | 1.04 | 2.34 | 1.12 | 95 | 1012.0 |
| 20260509203101 | 23 | 62 | 1.6 | 6.4 | 1.09 | 2.31 | 1.09 | 95 | 1012.1 |
| 20260509201559 | 23 | 61 | 0.0 | 4.8 | 1.09 | 2.31 | 1.09 | 94 | 1011.8 |
| 20260509200107 | 23 | 360 | 3.2 | 19.3 | 1.09 | 2.31 | 1.09 | 92 | 1011.6 |
| 20260509194659 | 26 | 294 | 20.9 | 43.5 | 0.38 | 1.60 | 0.38 | 83 | 1012.3 |
| 20260509193108 | 29 | 288 | 1.6 | 9.7 | 0.00 | 1.22 | 0.00 | 77 | 1011.5 |
| 20260509191612 | 30 | 306 | 1.6 | 9.7 | 0.00 | 1.22 | 0.00 | 73 | 1011.2 |
| 20260509190107 | 30 | 304 | 3.2 | 9.7 | 0.00 | 1.22 | 0.00 | 71 | 1011.3 |
| 20260509184550 | 30 | 333 | 1.6 | 11.3 | 0.00 | 1.22 | 0.00 | 70 | 1011.5 |
| 20260509183049 | 31 | 284 | 4.8 | 12.9 | 0.00 | 1.22 | 0.00 | 72 | 1011.8 |
| 20260509181547 | 31 | 288 | 1.6 | 11.3 | 0.00 | 1.22 | 0.00 | 74 | 1012.1 |
| 20260509180044 | 31 | 293 | 4.8 | 12.9 | 0.00 | 1.22 | 0.00 | 73 | 1012.3 |
| 20260509174543 | 30 | 269 | 1.6 | 11.3 | 0.00 | 1.22 | 0.00 | 73 | 1012.4 |
| 20260509173053 | 30 | 286 | 3.2 | 9.7 | 0.00 | 1.22 | 0.00 | 74 | 1012.5 |
| 20260509171548 | 30 | 225 | 3.2 | 14.5 | 0.00 | 1.22 | 0.00 | 75 | 1012.6 |